Date String (YYYY-MM-DD hh:mm:ss) UTC,Instrument flags,absolute air pressure of the measurement (hPa),sample flow rate (lpm),inlet stack bypass flow (lpm),air temperature of the measurement (°C),ambient temperature measured by the external sensor (°C),aerosol sample conditioner tube jacket temperature (°C),OPC LED temperature (°C),internal box temperature (°C),relative humidity of the measurement (%),span deviation,mass concentration of particles derived from Lorenz-Mie calculation of OPC scattering (μg/m³),mass concentration of particles derived from Lorenz-Mie calculation of OPC scattering (μg/m³),mass concentration of particles derived from Lorenz-Mie calculation of OPC scattering (μg/m³)
DateTimeUTC,F1_M11,P_M11,Q1_M11,Q2_M11,T1_M11,T2_M11,T3_M11,T4_M11,T5_M11,U1_M11,ZSPAN_M11,X0_M11,X2_M11,X1_M11
2023-11-23 02:00:00,SystemResetWarning,0827.8,4.99,000.00,025.8,024.9,000.0,034.1,027.1,8.3,0000.0,0007.93,0000.83,0000.45
2023-11-23 02:01:00,SystemResetWarning,0827.7,4.99,000.00,025.9,024.9,000.0,034.1,027.1,8.3,0000.0,0007.36,0000.74,0000.44
2023-11-23 02:02:00,SystemResetWarning,0827.7,5.00,000.00,025.8,024.9,000.0,034.1,027.1,8.3,0000.0,0006.07,0000.68,0000.42
2023-11-23 02:03:00,SystemResetWarning,0827.7,5.01,000.00,025.9,024.9,000.0,034.1,027.1,8.2,0000.0,0003.40,0000.61,0000.40
2023-11-23 02:04:00,SystemResetWarning,0827.7,5.01,000.00,025.8,024.9,000.0,034.1,027.1,8.3,0000.0,0003.46,0000.60,0000.40
2023-11-23 02:05:00,SystemResetWarning,0827.7,4.99,000.00,025.8,024.9,000.0,034.1,027.2,8.2,0000.0,0003.58,0000.59,0000.40
2023-11-23 02:06:00,SystemResetWarning,0827.8,4.99,000.00,025.9,024.9,000.0,034.1,027.1,8.2,0000.0,0003.64,0000.62,0000.41
2023-11-23 02:07:00,SystemResetWarning,0827.8,5.00,000.00,025.9,024.8,000.0,034.1,027.1,8.2,0000.0,0003.93,0000.66,0000.42
2023-11-23 02:08:00,SystemResetWarning,0827.8,5.00,000.00,025.9,024.8,000.0,034.1,027.1,8.2,0000.0,0004.17,0000.67,0000.41
2023-11-23 02:09:00,SystemResetWarning,0827.8,5.01,000.00,025.8,024.8,000.0,034.1,027.1,8.2,0000.0,0004.16,0000.67,0000.40
2023-11-23 02:10:00,SystemResetWarning,0827.9,5.00,000.00,025.8,024.8,000.0,034.1,027.1,8.1,0000.0,0004.09,0000.66,0000.40
2023-11-23 02:11:00,SystemResetWarning,0827.9,5.00,000.00,025.8,024.8,000.0,034.1,027.1,8.2,0000.0,0002.53,0000.60,0000.39
2023-11-23 02:12:00,SystemResetWarning,0827.8,4.99,000.00,025.8,024.9,000.0,034.1,027.1,8.2,0000.0,0002.36,0000.56,0000.38
2023-11-23 02:13:00,SystemResetWarning,0827.8,4.99,000.00,025.8,024.9,000.0,034.1,027.1,8.2,0000.0,0002.36,0000.55,0000.38
2023-11-23 02:14:00,SystemResetWarning,0827.8,5.00,000.00,025.8,024.9,000.0,034.1,027.1,8.2,0000.0,0002.45,0000.56,0000.38
2023-11-23 02:15:00,SystemResetWarning,0827.9,5.00,000.00,025.9,024.9,000.0,034.1,027.1,8.2,0000.0,0002.29,0000.54,0000.37
2023-11-23 02:16:00,SystemResetWarning,0827.9,5.00,000.00,025.8,024.9,000.0,034.1,027.1,8.2,0000.0,0001.43,0000.54,0000.36
2023-11-23 02:17:00,SystemResetWarning,0827.9,5.01,000.00,025.8,024.9,000.0,034.1,027.1,8.2,0000.0,0001.33,0000.50,0000.35
2023-11-23 02:18:00,SystemResetWarning,0827.9,5.00,000.00,025.8,024.9,000.0,034.1,027.1,8.2,0000.0,0001.10,0000.45,0000.33
2023-11-23 02:19:00,SystemResetWarning,0827.9,5.01,000.00,025.8,024.9,000.0,034.1,027.1,8.2,0000.0,0000.82,0000.44,0000.33
2023-11-23 02:20:00,SystemResetWarning,0828.0,5.00,000.00,025.8,024.8,000.0,034.1,027.1,8.2,0000.0,0000.97,0000.46,0000.33
2023-11-23 02:21:00,SystemResetWarning,0828.0,4.99,000.00,025.8,024.8,000.0,034.1,027.1,8.3,0000.0,0000.90,0000.44,0000.33
2023-11-23 02:22:00,SystemResetWarning,0828.0,4.99,000.00,025.8,024.8,000.0,034.1,027.1,8.3,0000.0,0000.90,0000.44,0000.33
2023-11-23 02:23:00,SystemResetWarning,0828.1,5.00,000.00,025.8,024.8,000.0,034.1,027.1,8.2,0000.0,0000.89,0000.44,0000.33
2023-11-23 02:24:00,SystemResetWarning,0828.1,5.00,000.00,025.8,024.9,000.0,034.1,027.1,8.2,0000.0,0000.90,0000.45,0000.33
2023-11-23 02:25:00,SystemResetWarning,0828.1,5.00,000.00,025.8,024.9,000.0,034.1,027.1,8.2,0000.0,0000.82,0000.44,0000.33
2023-11-23 02:26:00,SystemResetWarning,0828.1,4.99,000.00,025.8,024.8,000.0,034.1,027.1,8.1,0000.0,0000.87,0000.45,0000.33
2023-11-23 02:27:00,SystemResetWarning,0828.1,4.99,000.00,025.8,024.8,000.0,034.1,027.1,8.1,0000.0,0000.82,0000.44,0000.33
2023-11-23 02:28:00,SystemResetWarning,0828.1,5.00,000.00,025.8,024.8,000.0,034.1,027.1,8.2,0000.0,0000.92,0000.45,0000.33
2023-11-23 02:29:00,SystemResetWarning,0828.1,5.01,000.00,025.8,024.8,000.0,034.1,027.1,8.2,0000.0,0000.93,0000.45,0000.32
2023-11-23 02:30:00,SystemResetWarning,0828.1,5.00,000.00,025.8,024.8,000.0,034.1,027.1,8.2,0000.0,0000.91,0000.44,0000.32
2023-11-23 02:31:00,SystemResetWarning,0828.1,5.00,000.00,025.8,024.8,000.0,034.1,027.0,8.1,0000.0,0000.70,0000.40,0000.32
2023-11-23 02:32:00,SystemResetWarning,0828.1,5.00,000.00,025.8,024.8,000.0,034.1,027.0,8.2,0000.0,0000.66,0000.39,0000.32
2023-11-23 02:33:00,SystemResetWarning,0828.1,4.99,000.00,025.8,024.8,000.0,034.1,027.1,8.1,0000.0,0000.66,0000.39,0000.31
2023-11-23 02:34:00,SystemResetWarning,0828.1,5.00,000.00,025.8,024.8,000.0,034.1,027.1,8.1,0000.0,0000.69,0000.40,0000.31
2023-11-23 02:35:00,SystemResetWarning,0828.1,4.99,000.00,025.8,024.8,000.0,034.1,027.1,8.1,0000.0,0000.66,0000.39,0000.31
2023-11-23 02:36:00,SystemResetWarning,0828.1,4.99,000.00,025.8,024.8,000.0,034.1,027.1,8.1,0000.0,0000.67,0000.39,0000.32
2023-11-23 02:37:00,SystemResetWarning,0828.0,4.99,000.00,025.8,024.8,000.0,034.1,027.1,8.1,0000.0,0000.63,0000.39,0000.32
2023-11-23 02:38:00,SystemResetWarning,0828.0,4.99,000.00,025.8,024.8,000.0,034.1,027.0,8.0,0000.0,0000.68,0000.41,0000.33
2023-11-23 02:39:00,SystemResetWarning,0828.0,5.00,000.00,025.8,024.8,000.0,034.1,027.1,8.1,0000.0,0000.59,0000.40,0000.33
2023-11-23 02:40:00,SystemResetWarning,0827.9,5.00,000.00,025.8,024.8,000.0,034.1,027.0,8.1,0000.0,0000.56,0000.41,0000.34
2023-11-23 02:41:00,SystemResetWarning,0827.9,5.00,000.00,025.8,024.8,000.0,034.1,027.0,8.0,0000.0,0000.56,0000.41,0000.33
2023-11-23 02:42:00,SystemResetWarning,0827.9,5.00,000.00,025.8,024.8,000.0,034.1,027.0,8.0,0000.0,0000.57,0000.42,0000.33
2023-11-23 02:43:00,SystemResetWarning,0827.9,5.00,000.00,025.8,024.8,000.0,034.1,027.0,8.0,0000.0,0000.58,0000.42,0000.33
2023-11-23 02:44:00,SystemResetWarning,0827.9,5.00,000.00,025.8,024.8,000.0,034.1,027.0,8.1,0000.0,0000.58,0000.42,0000.33
2023-11-23 02:45:00,SystemResetWarning,0827.9,5.00,000.00,025.8,024.8,000.0,034.1,027.0,8.0,0000.0,0000.56,0000.41,0000.33
2023-11-23 02:46:00,SystemResetWarning,0827.9,5.01,000.00,025.8,024.8,000.0,034.1,027.0,8.1,0000.0,0000.63,0000.43,0000.32
2023-11-23 02:47:00,SystemResetWarning,0827.9,5.01,000.00,025.8,024.8,000.0,034.1,027.0,8.1,0000.0,0000.74,0000.43,0000.31
2023-11-23 02:48:00,SystemResetWarning,0827.9,5.00,000.00,025.8,024.8,000.0,034.1,027.0,8.1,0000.0,0000.72,0000.42,0000.30
2023-11-23 02:49:00,SystemResetWarning,0827.9,4.99,000.00,025.8,024.8,000.0,034.1,027.0,8.1,0000.0,0000.65,0000.39,0000.30
2023-11-23 02:50:00,SystemResetWarning,0827.9,4.99,000.00,025.8,024.8,000.0,034.1,027.0,8.2,0000.0,0000.63,0000.38,0000.29
2023-11-23 02:51:00,SystemResetWarning,0827.9,5.00,000.00,025.8,024.8,000.0,034.1,027.0,8.1,0000.0,0001.18,0000.36,0000.28
2023-11-23 02:52:00,SystemResetWarning,0827.9,4.99,000.00,025.7,024.8,000.0,034.1,027.0,8.1,0000.0,0001.18,0000.36,0000.28
2023-11-23 02:53:00,SystemResetWarning,0827.9,4.99,000.00,025.8,024.8,000.0,034.1,027.0,8.1,0000.0,0001.24,0000.38,0000.28
2023-11-23 02:54:00,SystemResetWarning,0827.9,5.00,000.00,025.8,024.8,000.0,034.1,027.0,8.1,0000.0,0001.29,0000.40,0000.29
2023-11-23 02:55:00,SystemResetWarning,0827.9,5.00,000.00,025.8,024.8,000.0,034.1,027.0,8.1,0000.0,0001.30,0000.40,0000.29
2023-11-23 02:56:00,SystemResetWarning,0827.8,5.00,000.00,025.8,024.8,000.0,034.1,027.0,8.1,0000.0,0001.27,0000.40,0000.30
2023-11-23 02:57:00,SystemResetWarning,0827.8,5.01,000.00,025.8,024.8,000.0,034.1,027.0,8.1,0000.0,0001.19,0000.37,0000.30
2023-11-23 02:58:00,SystemResetWarning,0827.8,5.00,000.00,025.8,024.8,000.0,034.1,027.0,8.1,0000.0,0001.10,0000.37,0000.30
2023-11-23 02:59:00,SystemResetWarning,0828.0,5.01,000.00,025.8,024.8,000.0,034.1,027.0,8.2,0000.0,0001.11,0000.37,0000.30
